SCOUT A R/B, 2755

Orbit data source: Space-Track

SCOUT A R/B, 2755 is space debris in LEO originally from a launch on Fri, 14 Apr 1967 UTC launched from the Air Force Western Test Range (AFWTR). Debris objects in space refer to the collection of defunct objects orbiting the Earth. Examples of debris include non-operational satellites, rocket bodies, and fragments generated from explosions, collisions, or faulty payload assembly.

Loading next visibility...
Identifier
2755, 1967-034B
Orbit
LEO
Country
Flag of USUS
Related business
Manufacturer
ABL
Mission
Spacecraft
Bus & Motor
ALTAIR, Unknown motor
Mass
33 kg wet, 33 kg dry
Launch date (UTC)
1967-04-14 (58 years ago)
Launch vehicle
Unknown
Launch site
Air Force Western Test Range (AFWTR)
Object type
Payload
Rocket body
Debris
Shape & HBR
Cyl, 0.8 m
Radar Cross Section
0.687 m², Medium (>0.1 m² and < 1m²)

Expand to show TLE details & history
Last TLE update: 21 hours ago

TLE from 21 hours ago
0 SCOUT A R/B
1 02755U 67034B   25242.23580594  .00000299  00000-0  42808-3 0  9995
2 02755  90.2581  48.2404 0027394 117.3043  56.6147 13.53976465882660
Epoch: 2025-08-30T05:39Z
TLE epoch observation values (Epoch: 2025-08-30T05:39:33.633Z)
Latitude
5.73744°
Longitude
164.70306°
Altitude
1,048.891 km
Speed
7.333 km/s
True Right ascension
15h 13m 03s
True Declination
5° 42' 17"
Sunlit
Object was in daylight at epoch
Visualization orbit readout
Latitude
Unknown
Longitude
Unknown
Altitude
Unknown
Speed
Unknown
Apparent Right ascension
Unknown
Apparent Declination
Unknown
Sunlit
N/A
Visualization observer readout
Local Sidereal Time
18:33:43
Azimuth
Unknown
Elevation
Unknown
Doppler factor
Unknown
Orbital elements
Apogee altitude
1,075.07 km
Perigee altitude
1,034.347 km
Semi-major axis
7,432.845 km
Eccentricity
0.00274
Inclination
90.2581°
RAAN
48.2404°
Arg. of periapsis
117.3043°
True anomaly
56.87731°
Mean anomaly
56.6147°
Eccentric anomaly
56.74595°
Mean motion
3.38696 °/min
Orbital period
106.29 mins
BSTAR
0.00042808
Loading maneuver chart data...
Computing Atmospheric mass density...
Loading historical data...
Loading historical data...
Loading historical data...
Loading historical data...
Loading historical data...
Loading historical data...
Loading historical data...

Documentation

Showing up to 5 results
|